TRA84P EHAM-LICJ

Flight info

Callsign TRA84P
Flight time N/A
Altitude 35000
Route EDUPO Z739 MISGO DCT ASBON DCT TUSUK DCT BATUB DCT TIRUL M738 NATAG DCT LORLO DCT ADOSA DCT SOVAN DCT PEPIX DCT GIANO
Aircraft B738/M-SDE2E3FGHIRWXY/LB1

Departure

Time 2026-04-30 09:06
Airport Amsterdam Airport Schiphol (EHAM)

Arrival

Time N/A
Airport Falcone–Borsellino Airport (LICJ)
Time Latitude Longitude Altitude Speed Heading
2026-04-30 08:46 52.30543 4.76811 -2 ft 0 kts 294°
2026-04-30 08:51 52.30543 4.76812 -2 ft 0 kts 294°
2026-04-30 08:51 52.30535 4.76841 -2 ft 3 kts 292°
2026-04-30 08:51 52.30527 4.76871 -2 ft 3 kts 293°
2026-04-30 08:52 52.30521 4.76896 -2 ft 1 kts 280°
2026-04-30 08:52 52.30521 4.76911 -2 ft 1 kts 224°
2026-04-30 08:52 52.30528 4.76918 -2 ft 1 kts 187°
2026-04-30 08:52 52.30537 4.76919 -2 ft 1 kts 179°
2026-04-30 08:53 52.30545 4.76919 -2 ft 1 kts 176°
2026-04-30 08:53 52.30550 4.76918 -2 ft 0 kts 174°
2026-04-30 08:55 52.30546 4.76922 -2 ft 3 kts 152°
2026-04-30 08:55 52.30501 4.76976 -2 ft 10 kts 146°
2026-04-30 08:55 52.30446 4.77036 -2 ft 9 kts 137°
2026-04-30 08:56 52.30430 4.77132 -2 ft 9 kts 74°
2026-04-30 08:56 52.30477 4.77255 -2 ft 21 kts 58°
2026-04-30 08:56 52.30557 4.77459 -2 ft 21 kts 57°
2026-04-30 08:56 52.30668 4.77589 -2 ft 20 kts
2026-04-30 08:57 52.30808 4.77601 -2 ft 20 kts
2026-04-30 08:57 52.30923 4.77613 -2 ft 10 kts
2026-04-30 08:57 52.30993 4.77617 -2 ft 10 kts
2026-04-30 08:57 52.31061 4.77623 -2 ft 10 kts
2026-04-30 08:58 52.31128 4.77632 -2 ft 13 kts
2026-04-30 08:58 52.31246 4.77642 -2 ft 17 kts
2026-04-30 08:58 52.31364 4.77653 -2 ft 17 kts
2026-04-30 08:58 52.31472 4.77616 -2 ft 16 kts 323°
2026-04-30 08:59 52.31551 4.77491 -2 ft 16 kts 308°
2026-04-30 08:59 52.31578 4.77331 -2 ft 14 kts 266°
2026-04-30 08:59 52.31569 4.77179 -2 ft 13 kts 263°
2026-04-30 08:59 52.31566 4.77033 -2 ft 13 kts 265°
2026-04-30 09:00 52.31561 4.76891 -2 ft 12 kts 268°
2026-04-30 09:00 52.31556 4.76752 -2 ft 12 kts 266°
2026-04-30 09:00 52.31552 4.76616 -2 ft 12 kts 266°
2026-04-30 09:00 52.31547 4.76480 -2 ft 12 kts 266°
2026-04-30 09:01 52.31542 4.76334 -2 ft 14 kts 266°
2026-04-30 09:01 52.31535 4.76135 -2 ft 19 kts 267°
2026-04-30 09:01 52.31528 4.75923 -2 ft 18 kts 267°
2026-04-30 09:01 52.31521 4.75721 -2 ft 18 kts 266°
2026-04-30 09:02 52.31508 4.75333 -2 ft 16 kts 267°
2026-04-30 09:02 52.31502 4.75150 -2 ft 15 kts 267°
2026-04-30 09:02 52.31498 4.75031 -2 ft 10 kts 267°
2026-04-30 09:03 52.31494 4.74913 -2 ft 11 kts 266°
2026-04-30 09:03 52.31490 4.74793 -2 ft 10 kts 267°
2026-04-30 09:03 52.31509 4.74686 -2 ft 10 kts 321°
2026-04-30 09:03 52.31576 4.74661 -2 ft 10 kts 357°
2026-04-30 09:04 52.31641 4.74682 26 ft 10 kts 33°
2026-04-30 09:04 52.31667 4.74746 -2 ft 5 kts 83°
2026-04-30 09:04 52.31667 4.74771 -2 ft 0 kts 88°
2026-04-30 09:05 52.31667 4.74772 -2 ft 1 kts 88°
2026-04-30 09:05 52.31671 4.74892 -3 ft 27 kts 86°
2026-04-30 09:06 52.31698 4.75664 -3 ft 107 kts 86°
2026-04-30 09:06 52.31742 4.77219 187 ft 155 kts 90°
2026-04-30 09:06 52.31759 4.78958 1191 ft 153 kts 89°
2026-04-30 09:06 52.31813 4.80719 2125 ft 165 kts 91°
2026-04-30 09:07 52.31868 4.82717 2600 ft 186 kts 92°
2026-04-30 09:07 52.31922 4.84914 2961 ft 203 kts 88°
2026-04-30 09:07 52.31905 4.87209 3510 ft 208 kts 107°
2026-04-30 09:07 52.31311 4.89478 3903 ft 226 kts 114°
2026-04-30 09:08 52.30671 4.91885 4575 ft 235 kts 112°
2026-04-30 09:08 52.30029 4.94361 5420 ft 238 kts 112°
2026-04-30 09:08 52.29395 4.96881 6209 ft 244 kts 109°
2026-04-30 09:08 52.28896 4.99566 7004 ft 248 kts 105°
2026-04-30 09:09 52.28440 5.02307 7789 ft 250 kts 105°
2026-04-30 09:09 52.27984 5.05062 8581 ft 253 kts 105°
2026-04-30 09:09 52.27520 5.07815 9344 ft 256 kts 105°
2026-04-30 09:09 52.27039 5.10635 10146 ft 258 kts 104°
2026-04-30 09:10 52.26549 5.13485 10790 ft 265 kts 105°
2026-04-30 09:10 52.26020 5.16533 10978 ft 290 kts 105°
2026-04-30 09:10 52.25445 5.19822 11154 ft 312 kts 105°
2026-04-30 09:10 52.24832 5.23310 11396 ft 330 kts 105°
2026-04-30 09:11 52.23992 5.26865 11900 ft 341 kts 120°
2026-04-30 09:11 52.22562 5.30003 12586 ft 345 kts 125°
2026-04-30 09:11 52.21141 5.33141 13207 ft 350 kts 123°
2026-04-30 09:11 52.19723 5.36415 13821 ft 355 kts 123°
2026-04-30 09:12 52.18325 5.39663 14424 ft 359 kts 123°
2026-04-30 09:12 52.16877 5.43017 15006 ft 363 kts 123°
2026-04-30 09:12 52.15431 5.46352 15637 ft 366 kts 123°
2026-04-30 09:12 52.13952 5.49750 16258 ft 368 kts 123°
2026-04-30 09:13 52.12448 5.53191 16839 ft 372 kts 123°
2026-04-30 09:13 52.10956 5.56599 17408 ft 375 kts 123°
2026-04-30 09:13 52.09432 5.60078 17996 ft 379 kts 123°
2026-04-30 09:13 52.07890 5.63592 18576 ft 382 kts 123°
2026-04-30 09:14 52.06335 5.67128 19072 ft 385 kts 123°
2026-04-30 09:14 52.04690 5.70542 19528 ft 390 kts 128°
2026-04-30 09:14 52.02879 5.73879 20003 ft 394 kts 129°
2026-04-30 09:14 52.01039 5.77212 20474 ft 398 kts 129°
2026-04-30 09:15 51.99197 5.80607 20936 ft 401 kts 128°
2026-04-30 09:15 51.97380 5.83995 21385 ft 404 kts 128°
2026-04-30 09:15 51.95529 5.87454 21829 ft 407 kts 128°
2026-04-30 09:15 51.93661 5.90936 22271 ft 410 kts 128°
2026-04-30 09:16 51.91785 5.94425 22698 ft 413 kts 128°
2026-04-30 09:16 51.89889 5.97948 23125 ft 417 kts 128°
2026-04-30 09:16 51.87974 6.01503 23529 ft 420 kts 128°
2026-04-30 09:16 51.86070 6.05030 23939 ft 423 kts 128°
2026-04-30 09:17 51.84119 6.08624 24290 ft 426 kts 129°
2026-04-30 09:17 51.82149 6.12229 24655 ft 428 kts 129°
2026-04-30 09:17 51.80170 6.15845 25038 ft 429 kts 129°
2026-04-30 09:17 51.78189 6.19462 25391 ft 431 kts 129°
2026-04-30 09:18 51.76190 6.23109 25729 ft 433 kts 129°
2026-04-30 09:18 51.74214 6.26717 26067 ft 435 kts 129°
2026-04-30 09:18 51.72195 6.30403 26407 ft 437 kts 129°
2026-04-30 09:18 51.70178 6.34082 26736 ft 439 kts 129°
2026-04-30 09:19 51.68150 6.37776 27050 ft 441 kts 128°
2026-04-30 09:19 51.66103 6.41500 27362 ft 443 kts 129°
2026-04-30 09:19 51.64053 6.45222 27667 ft 445 kts 129°
2026-04-30 09:19 51.62016 6.48912 27968 ft 446 kts 129°
2026-04-30 09:20 51.59949 6.52650 28265 ft 448 kts 129°
2026-04-30 09:20 51.59245 6.53923 28356 ft 449 kts 129°
2026-04-30 09:20 51.58246 6.55728 28510 ft 450 kts 129°
2026-04-30 09:20 51.56153 6.59507 28785 ft 451 kts 129°
2026-04-30 09:21 51.54084 6.63236 29046 ft 453 kts 128°
2026-04-30 09:21 51.51972 6.67038 29328 ft 455 kts 128°
2026-04-30 09:21 51.49863 6.70830 29644 ft 455 kts 128°
2026-04-30 09:21 51.47753 6.74619 30058 ft 454 kts 128°
2026-04-30 09:22 51.45650 6.78388 30485 ft 451 kts 128°
2026-04-30 09:22 51.43577 6.82099 30820 ft 450 kts 128°
2026-04-30 09:22 51.41469 6.85818 31113 ft 451 kts 131°
2026-04-30 09:22 51.39116 6.89155 31388 ft 455 kts 141°
2026-04-30 09:23 51.36428 6.91899 31729 ft 456 kts 145°
2026-04-30 09:23 51.33746 6.94498 32058 ft 454 kts 144°
2026-04-30 09:23 51.31055 6.97138 32348 ft 454 kts 144°
2026-04-30 09:23 51.28370 6.99801 32645 ft 453 kts 144°
2026-04-30 09:24 51.25700 7.02467 32950 ft 452 kts 144°
2026-04-30 09:24 51.23118 7.05052 33249 ft 451 kts 144°
2026-04-30 09:24 51.20466 7.07708 33540 ft 449 kts 144°
2026-04-30 09:24 51.17823 7.10353 33843 ft 448 kts 144°
2026-04-30 09:25 51.15179 7.12995 34142 ft 447 kts 143°
2026-04-30 09:25 51.12547 7.15619 34419 ft 447 kts 143°
2026-04-30 09:25 51.09911 7.18244 34627 ft 447 kts 143°
2026-04-30 09:25 51.07275 7.20865 34817 ft 447 kts 143°
2026-04-30 09:26 51.04636 7.23484 35009 ft 447 kts 143°
2026-04-30 09:26 51.01997 7.26099 35210 ft 447 kts 144°
2026-04-30 09:26 50.99342 7.28728 35388 ft 447 kts 144°
2026-04-30 09:26 50.96724 7.31317 35395 ft 451 kts 144°
2026-04-30 09:27 50.91398 7.36570 35402 ft 448 kts 144°
2026-04-30 09:27 50.86113 7.41767 35408 ft 445 kts 144°
2026-04-30 09:28 50.80892 7.46891 35410 ft 442 kts 144°
2026-04-30 09:28 50.75666 7.52008 35425 ft 441 kts 144°
2026-04-30 09:29 50.70438 7.57155 35425 ft 441 kts 142°
2026-04-30 09:29 50.65333 7.62445 35428 ft 443 kts 142°
2026-04-30 09:30 50.60177 7.67832 35426 ft 445 kts 142°
2026-04-30 09:30 50.54979 7.73216 35423 ft 448 kts 142°
2026-04-30 09:31 50.49753 7.78597 35417 ft 450 kts 142°
2026-04-30 09:31 50.44528 7.83955 35435 ft 451 kts 142°
2026-04-30 09:32 50.39246 7.89357 35422 ft 452 kts 142°
2026-04-30 09:32 50.33962 7.94749 35433 ft 453 kts 142°
2026-04-30 09:33 50.28709 8.00095 35427 ft 452 kts 142°
2026-04-30 09:33 50.23419 8.05466 35430 ft 453 kts 142°
2026-04-30 09:34 50.18796 8.10152 35415 ft 459 kts 142°
2026-04-30 09:34 50.13390 8.15560 35412 ft 464 kts 145°
2026-04-30 09:35 50.07485 8.19910 35407 ft 470 kts 152°
2026-04-30 09:35 50.01462 8.23943 35404 ft 471 kts 152°
2026-04-30 09:36 49.96469 8.27323 35402 ft 470 kts 152°
2026-04-30 09:36 49.89516 8.32099 35410 ft 469 kts 151°
2026-04-30 09:37 49.83540 8.36222 35405 ft 468 kts 151°
2026-04-30 09:37 49.78588 8.39633 35403 ft 468 kts 151°
2026-04-30 09:38 49.72632 8.43721 35398 ft 467 kts 152°
2026-04-30 09:38 49.66722 8.47765 35399 ft 466 kts 152°
2026-04-30 09:39 49.60782 8.51819 35400 ft 466 kts 152°
2026-04-30 09:39 49.54841 8.55863 35404 ft 466 kts 152°
2026-04-30 09:40 49.48937 8.59871 35403 ft 466 kts 152°
2026-04-30 09:40 49.43066 8.63846 35405 ft 466 kts 152°
2026-04-30 09:41 49.37114 8.67865 35393 ft 466 kts 152°
2026-04-30 09:41 49.31198 8.71849 35387 ft 467 kts 152°
2026-04-30 09:42 49.25235 8.75854 35379 ft 467 kts 152°
2026-04-30 09:42 49.19303 8.79827 35363 ft 468 kts 152°
2026-04-30 09:43 49.13313 8.83830 35354 ft 468 kts 152°
2026-04-30 09:43 49.07362 8.87795 35348 ft 469 kts 152°
2026-04-30 09:44 49.01366 8.91780 35338 ft 470 kts 152°
2026-04-30 09:44 48.95361 8.95761 35341 ft 470 kts 152°
2026-04-30 09:45 48.89392 8.99706 35335 ft 470 kts 152°
2026-04-30 09:45 48.83365 9.03680 35330 ft 471 kts 152°
2026-04-30 09:46 48.77384 9.07614 35325 ft 471 kts 152°
2026-04-30 09:46 48.71335 9.11582 35332 ft 471 kts 152°
2026-04-30 09:47 48.65327 9.15512 35317 ft 472 kts 152°
2026-04-30 09:47 48.59321 9.19432 35312 ft 472 kts 152°
2026-04-30 09:48 48.53282 9.23362 35317 ft 472 kts 152°
2026-04-30 09:48 48.47246 9.27280 35314 ft 472 kts 152°
2026-04-30 09:49 48.41195 9.31198 35319 ft 472 kts 152°
2026-04-30 09:49 48.35180 9.35083 35313 ft 473 kts 152°
2026-04-30 09:50 48.29118 9.38987 35308 ft 473 kts 152°
2026-04-30 09:50 48.23092 9.42859 35310 ft 473 kts 152°
2026-04-30 09:51 48.17025 9.46748 35305 ft 474 kts 152°
2026-04-30 09:51 48.10953 9.50629 35305 ft 474 kts 152°
2026-04-30 09:52 48.04900 9.54490 35297 ft 475 kts 153°
2026-04-30 09:52 47.99081 9.59003 35297 ft 467 kts 141°
2026-04-30 09:53 47.93750 9.64605 35281 ft 468 kts 140°
2026-04-30 09:53 47.88554 9.70017 35272 ft 469 kts 141°
2026-04-30 09:54 47.83199 9.75503 35266 ft 470 kts 141°
2026-04-30 09:54 47.77780 9.81004 35263 ft 471 kts 141°
2026-04-30 09:55 47.72387 9.86463 35266 ft 472 kts 141°
2026-04-30 09:55 47.66939 9.91965 35260 ft 473 kts 141°
2026-04-30 09:56 47.61516 9.97431 35251 ft 473 kts 141°
2026-04-30 09:56 47.56055 10.02922 35247 ft 474 kts 142°
2026-04-30 09:57 47.50570 10.08422 35240 ft 476 kts 142°
2026-04-30 09:57 47.45104 10.13889 35236 ft 477 kts 142°
2026-04-30 09:58 47.39586 10.19394 35236 ft 478 kts 142°
2026-04-30 09:58 47.34054 10.24899 35231 ft 479 kts 142°
2026-04-30 09:59 47.23033 10.35824 35231 ft 479 kts 142°
2026-04-30 10:00 47.14698 10.44052 35219 ft 479 kts 142°
2026-04-30 10:01 47.06371 10.52113 35244 ft 482 kts 148°
2026-04-30 10:02 46.96803 10.56988 35269 ft 489 kts 161°
2026-04-30 10:02 46.90265 10.59869 35271 ft 489 kts 160°
2026-04-30 10:03 46.83793 10.62801 35268 ft 489 kts 160°
2026-04-30 10:03 46.77274 10.65722 35263 ft 489 kts 161°
2026-04-30 10:04 46.70769 10.68560 35267 ft 490 kts 163°
2026-04-30 10:04 46.64088 10.70820 35265 ft 491 kts 166°
2026-04-30 10:05 46.57415 10.72874 35265 ft 492 kts 166°
2026-04-30 10:05 46.50691 10.74988 35258 ft 492 kts 166°
2026-04-30 10:06 46.44039 10.77133 35255 ft 492 kts 166°
2026-04-30 10:06 46.37340 10.79309 35273 ft 492 kts 166°
2026-04-30 10:07 46.30686 10.81464 35262 ft 492 kts 166°
2026-04-30 10:07 46.23997 10.83621 35252 ft 493 kts 167°
2026-04-30 10:08 46.17273 10.85783 35259 ft 493 kts 167°
2026-04-30 10:08 46.10601 10.87923 35252 ft 493 kts 167°
2026-04-30 10:09 46.03921 10.90060 35273 ft 493 kts 167°
2026-04-30 10:09 45.97241 10.92192 35257 ft 494 kts 167°
2026-04-30 10:10 45.90509 10.94336 35273 ft 494 kts 167°
2026-04-30 10:10 45.83789 10.96470 35279 ft 493 kts 168°
2026-04-30 10:11 45.77123 10.98582 35278 ft 493 kts 168°
2026-04-30 10:11 45.70415 11.00702 35294 ft 493 kts 168°
2026-04-30 10:12 45.63711 11.02817 35307 ft 493 kts 168°
2026-04-30 10:12 45.57015 11.04967 35301 ft 493 kts 168°
2026-04-30 10:13 45.50337 11.07131 35312 ft 492 kts 168°
2026-04-30 10:13 45.43664 11.09286 35312 ft 492 kts 169°
2026-04-30 10:14 45.36990 11.11430 35314 ft 491 kts 169°
2026-04-30 10:14 45.26992 11.14630 35291 ft 491 kts 169°
2026-04-30 10:15 45.20330 11.16756 35290 ft 491 kts 169°
2026-04-30 10:15 45.13661 11.18879 35295 ft 490 kts 169°
2026-04-30 10:16 45.07005 11.20993 35290 ft 490 kts 170°
2026-04-30 10:17 44.97016 11.24156 35285 ft 490 kts 170°
2026-04-30 10:17 44.87182 11.27259 35277 ft 490 kts 170°
2026-04-30 10:18 44.80521 11.29354 35286 ft 490 kts 171°
2026-04-30 10:19 44.70526 11.32490 35287 ft 490 kts 171°
2026-04-30 10:19 44.63881 11.34568 35287 ft 490 kts 171°
2026-04-30 10:20 44.57216 11.36648 35292 ft 490 kts 171°
2026-04-30 10:20 44.47239 11.39752 35291 ft 490 kts 171°
2026-04-30 10:21 44.41681 11.41476 35287 ft 491 kts 172°
2026-04-30 10:21 44.33921 11.43878 35273 ft 491 kts 171°
2026-04-30 10:22 44.28373 11.45591 35275 ft 491 kts 172°
2026-04-30 10:22 44.21676 11.47655 35263 ft 491 kts 172°
2026-04-30 10:23 44.14990 11.49711 35245 ft 492 kts 172°
2026-04-30 10:23 44.08331 11.51753 35247 ft 492 kts 172°
2026-04-30 10:24 44.01630 11.53804 35241 ft 491 kts 172°
2026-04-30 10:24 43.94940 11.55846 35228 ft 492 kts 172°
2026-04-30 10:25 43.88269 11.57879 35221 ft 492 kts 172°
2026-04-30 10:25 43.81558 11.59918 35209 ft 492 kts 172°
2026-04-30 10:26 43.74911 11.61934 35205 ft 491 kts 172°
2026-04-30 10:26 43.68231 11.63956 35196 ft 489 kts 172°
2026-04-30 10:27 43.61616 11.65953 35203 ft 489 kts 172°
2026-04-30 10:27 43.54966 11.67955 35209 ft 488 kts 172°
2026-04-30 10:28 43.48334 11.69948 35195 ft 488 kts 172°
2026-04-30 10:28 43.41703 11.71936 35190 ft 487 kts 172°
2026-04-30 10:29 43.35094 11.73913 35183 ft 486 kts 172°
2026-04-30 10:29 43.28488 11.75885 35188 ft 485 kts 172°
2026-04-30 10:30 43.21893 11.77849 35193 ft 484 kts 172°
2026-04-30 10:30 43.15309 11.79806 35185 ft 484 kts 172°
2026-04-30 10:31 43.08735 11.81755 35184 ft 483 kts 172°
2026-04-30 10:31 43.02161 11.83700 35179 ft 483 kts 172°
2026-04-30 10:32 42.95596 11.85638 35177 ft 482 kts 172°
2026-04-30 10:32 42.89033 11.87573 35166 ft 482 kts 172°
2026-04-30 10:33 42.82504 11.89460 35162 ft 481 kts 173°
2026-04-30 10:33 42.75910 11.90784 35158 ft 478 kts 177°
2026-04-30 10:34 42.69305 11.91864 35152 ft 478 kts 177°
2026-04-30 10:34 42.62714 11.92980 35135 ft 477 kts 176°
2026-04-30 10:35 42.56113 11.94154 35132 ft 477 kts 176°
2026-04-30 10:35 42.49523 11.95346 35129 ft 476 kts 176°
2026-04-30 10:36 42.42990 11.96525 35129 ft 476 kts 176°
2026-04-30 10:36 42.36426 11.97705 35135 ft 475 kts 176°
2026-04-30 10:37 42.29864 11.98881 35130 ft 475 kts 176°
2026-04-30 10:37 42.23332 12.00049 35125 ft 474 kts 176°
2026-04-30 10:38 42.16771 12.01219 35180 ft 474 kts 176°
2026-04-30 10:38 42.10238 12.02383 35201 ft 473 kts 176°
2026-04-30 10:39 42.03899 12.03509 35254 ft 472 kts 176°
2026-04-30 10:39 41.97380 12.04665 35263 ft 472 kts 176°
2026-04-30 10:40 41.90869 12.05817 35262 ft 471 kts 176°
2026-04-30 10:40 41.84361 12.06967 35252 ft 471 kts 176°
2026-04-30 10:41 41.81110 12.07540 35102 ft 471 kts 176°
2026-04-30 10:41 41.77863 12.08112 35104 ft 470 kts 176°
2026-04-30 10:41 41.71364 12.09255 35102 ft 470 kts 176°
2026-04-30 10:42 41.64889 12.10391 35103 ft 470 kts 176°
2026-04-30 10:42 41.58430 12.11522 35110 ft 470 kts 175°
2026-04-30 10:43 41.51919 12.12661 35105 ft 470 kts 175°
2026-04-30 10:43 41.45462 12.13787 35113 ft 470 kts 175°
2026-04-30 10:44 41.38955 12.14920 35115 ft 470 kts 175°
2026-04-30 10:44 41.32530 12.16037 35121 ft 470 kts 175°
2026-04-30 10:45 41.26044 12.17162 35122 ft 470 kts 175°
2026-04-30 10:45 41.19585 12.18280 35124 ft 470 kts 175°
2026-04-30 10:46 41.13088 12.19352 35120 ft 469 kts 177°
2026-04-30 10:46 41.06582 12.20108 35127 ft 468 kts 178°
2026-04-30 10:47 41.00080 12.20793 35125 ft 468 kts 178°
2026-04-30 10:47 40.93619 12.21509 35129 ft 468 kts 178°
2026-04-30 10:48 40.87124 12.22256 35127 ft 468 kts 178°
2026-04-30 10:48 40.80610 12.23012 35129 ft 468 kts 178°
2026-04-30 10:49 40.74114 12.23765 35126 ft 468 kts 178°
2026-04-30 10:49 40.67660 12.24511 35124 ft 468 kts 178°
2026-04-30 10:50 40.61164 12.25259 35121 ft 468 kts 178°
2026-04-30 10:50 40.54660 12.26006 35122 ft 469 kts 178°
2026-04-30 10:51 40.48153 12.26752 35122 ft 469 kts 178°
2026-04-30 10:51 40.41649 12.27497 35118 ft 469 kts 177°
2026-04-30 10:52 40.35188 12.28235 35119 ft 469 kts 177°
2026-04-30 10:52 40.28681 12.28977 35119 ft 469 kts 177°
2026-04-30 10:53 40.22162 12.29719 35115 ft 469 kts 177°
2026-04-30 10:53 40.15638 12.30460 35116 ft 469 kts 177°
2026-04-30 10:54 40.09156 12.31195 35115 ft 469 kts 177°
2026-04-30 10:54 40.02631 12.31933 35115 ft 469 kts 177°
2026-04-30 10:55 39.96124 12.32668 35112 ft 469 kts 177°
2026-04-30 10:55 39.89607 12.33403 35112 ft 469 kts 177°
2026-04-30 10:56 39.83133 12.34131 35111 ft 469 kts 177°
2026-04-30 10:56 39.76621 12.34862 35111 ft 469 kts 178°
2026-04-30 10:57 39.70111 12.35592 35106 ft 469 kts 178°
2026-04-30 10:57 39.63602 12.36320 35103 ft 469 kts 178°
2026-04-30 10:58 39.57096 12.37047 35105 ft 469 kts 178°
2026-04-30 10:58 39.50589 12.37772 35101 ft 469 kts 178°
2026-04-30 10:59 39.44115 12.38492 35098 ft 469 kts 178°
2026-04-30 10:59 39.37602 12.39215 35101 ft 469 kts 178°
2026-04-30 11:00 39.31160 12.39932 35021 ft 451 kts 178°
2026-04-30 11:00 39.28075 12.40278 34430 ft 443 kts 178°
2026-04-30 11:00 39.24993 12.40618 33361 ft 445 kts 178°
2026-04-30 11:01 39.21889 12.40957 32081 ft 451 kts 178°
2026-04-30 11:01 39.18738 12.41301 30830 ft 457 kts 178°
2026-04-30 11:01 39.15564 12.41650 29850 ft 456 kts 178°
2026-04-30 11:01 39.12432 12.41997 29021 ft 448 kts 178°
2026-04-30 11:02 39.09356 12.42338 28251 ft 439 kts 178°
2026-04-30 11:02 39.06339 12.42672 27432 ft 432 kts 178°
2026-04-30 11:02 39.03359 12.43000 26602 ft 427 kts 178°
2026-04-30 11:02 39.00410 12.43323 25800 ft 422 kts 178°
2026-04-30 11:03 38.97502 12.43641 25029 ft 417 kts 178°
2026-04-30 11:03 38.94627 12.43955 24287 ft 412 kts 178°
2026-04-30 11:03 38.91787 12.44252 23551 ft 407 kts 178°
2026-04-30 11:04 38.86244 12.45266 21896 ft 401 kts 166°
2026-04-30 11:04 38.84509 12.46071 21378 ft 400 kts 159°
2026-04-30 11:04 38.82009 12.47608 20626 ft 396 kts 156°
2026-04-30 11:04 38.79542 12.49139 19904 ft 391 kts 157°
2026-04-30 11:05 38.77102 12.50636 19205 ft 387 kts 157°
2026-04-30 11:05 38.74703 12.52094 18786 ft 375 kts 157°
2026-04-30 11:05 38.72384 12.53495 18563 ft 360 kts 158°
2026-04-30 11:05 38.72156 12.53633 18543 ft 359 kts 158°
2026-04-30 11:06 38.69861 12.55010 18335 ft 371 kts 158°
2026-04-30 11:06 38.67506 12.56418 18083 ft 382 kts 158°
2026-04-30 11:06 38.65078 12.57870 17816 ft 385 kts 157°
2026-04-30 11:06 38.62657 12.59319 17541 ft 383 kts 157°
2026-04-30 11:07 38.60243 12.60766 17279 ft 380 kts 157°
2026-04-30 11:07 38.57878 12.62181 17029 ft 378 kts 157°
2026-04-30 11:07 38.55486 12.63611 16763 ft 376 kts 157°
2026-04-30 11:07 38.53111 12.65029 16239 ft 377 kts 157°
2026-04-30 11:08 38.50728 12.66450 15334 ft 377 kts 157°
2026-04-30 11:08 38.48372 12.67855 14383 ft 378 kts 157°
2026-04-30 11:08 38.45995 12.69272 13398 ft 377 kts 157°
2026-04-30 11:08 38.43663 12.70662 12338 ft 358 kts 156°
2026-04-30 11:09 38.41451 12.71980 11342 ft 341 kts 156°
2026-04-30 11:09 38.39368 12.73223 10509 ft 325 kts 156°
2026-04-30 11:09 38.37345 12.74430 9771 ft 309 kts 156°
2026-04-30 11:09 38.35456 12.75555 8999 ft 297 kts 156°
2026-04-30 11:10 38.33613 12.76652 8291 ft 286 kts 156°
2026-04-30 11:10 38.31851 12.77693 7788 ft 271 kts 156°
2026-04-30 11:10 38.30148 12.78695 7324 ft 267 kts 156°